Overview Statistics Trail Chart Weather Telemetry Raw packets
 

This is the latest recevied weather packets stored in our database for station/object WW6Q. If no packets are shown the sender has not sent any weather packets the latest 10 day(s).

<< 81 82 83 84 85 86 87 >>
Time Temp. Humidity Pressure Rain* Wind** Luminosity Snow
1788032959 26.67° C 52% 1020.1 hPa 0 mm - 221 W/m² -
1788032658 26.67° C 56% 1019.9 hPa 0 mm - 511 W/m² -
1788032353 26.11° C 61% 1020.3 hPa 0 mm - 606 W/m² -
1788032054 26.67° C 53% 1020.2 hPa 0 mm - 430 W/m² -
1788031749 27.22° C 49% 1020.4 hPa 0 mm - 398 W/m² -
1788031444 27.22° C 54% 1020.4 hPa 0 mm - 369 W/m² -
1788031139 26.67° C 55% 1020.3 hPa 0 mm - 656 W/m² -
1788030838 27.22° C 57% 1020.5 hPa 0 mm - 605 W/m² -
1788030537 27.22° C 55% 1020.5 hPa 0 mm - 557 W/m² -
1788030233 26.67° C 54% 1020.6 hPa 0 mm - 665 W/m² -
1788029927 26.67° C 52% 1020.5 hPa 0 mm - 669 W/m² -
1788029623 26.67° C 56% 1020.5 hPa 0 mm - 631 W/m² -
1788029318 26.67° C 54% 1020.6 hPa 0 mm - 656 W/m² -
1788029016 26.67° C 53% 1020.6 hPa 0 mm - 623 W/m² -
1788028716 26.11° C 52% 1020.7 hPa 0 mm - 549 W/m² -
1788028411 26.11° C 59% 1020.7 hPa 0 mm - 484 W/m² -
1788028106 26.11° C 51% 1020.8 hPa 0 mm - 501 W/m² -
1788027801 26.11° C 58% 1020.9 hPa 0 mm - 484 W/m² -
1788027501 26.67° C 56% 1020.8 hPa 0 mm - 492 W/m² -
1788027195 26.67° C 56% 1021.1 hPa 0 mm - 544 W/m² -
1788026895 26.11° C 56% 1020.9 hPa 0 mm - 577 W/m² -
1788026591 26.67° C 57% 1021.1 hPa 0 mm - 561 W/m² -
1788026291 26.67° C 56% 1021.4 hPa 0 mm - 649 W/m² -
1788025987 26.67° C 57% 1021.1 hPa 0 mm - 668 W/m² -
1788025685 26.67° C 57% 1021.4 hPa 0 mm - 758 W/m² -

* Rain latest hour (hover to see other rain measurements)
** Current wind speed in m/s (hover to see current wind gust speed)